This demonstration page uses our WeatherBlox Daily Observations layout. Learn more.

Left ArrowRight Arrow

Hourly Observations for March 3, 2018

Temp ( °F °C ) Dew Point ( °F °C ) Humidity (%) Winds ( mph kmh ) Pressure ( in mb ) Visibility ( mi km ) Precip ( " mm )
12:59 am 00:59 Cloudy 44 6.7 23 -5 43 43 NNW 30 48 29.94 1014 10 16 0.00 0.00
1:59 am 01:59 Mostly Cloudy 43 6.1 24 -4.4 47 47 NNW 24 39 29.95 1014 10 16 0.00 0.00
2:59 am 02:59 Mostly Cloudy 41 5 22 -5.6 47 47 NW 25 41 29.94 1014 10 16 0.00 0.00
3:59 am 03:59 Partly Cloudy 40 4.4 23 -5 51 51 NNW 28 44 29.96 1015 10 16 0.00 0.00
4:59 am 04:59 Mostly Cloudy 40 4.4 24 -4.4 53 53 NNW 30 48 29.96 1015 10 16 0.00 0.00
5:59 am 05:59 Mostly Cloudy 39 3.9 24 -4.4 55 55 NNW 26 43 29.98 1015 10 16 0.00 0.00
6:59 am 06:59 Mostly Cloudy 39 3.9 24 -4.4 55 55 NW 24 39 30.00 1016 10 16 0.00 0.00
7:59 am 07:59 Mostly Cloudy 40 4.4 25 -3.9 55 55 NNW 25 41 30.02 1017 10 16 0.00 0.00
8:59 am 08:59 Mostly Cloudy 41 5 25 -3.9 53 53 NNW 24 39 30.01 1016 10 16 0.00 0.00
9:59 am 09:59 Partly Cloudy 45 7.2 26 -3.3 48 48 NNW 24 39 30.03 1017 10 16 0.00 0.00
10:59 am 10:59 Mostly Cloudy 48 8.9 27 -2.8 44 44 NNW 23 37 30.04 1017 10 16 0.00 0.00
11:59 am 11:59 Mostly Cloudy 49 9.4 26 -3.3 41 41 NNW 21 33 30.05 1018 10 16 0.00 0.00
12:59 pm 12:59 Partly Cloudy 51 10.6 27 -2.8 39 39 N 17 28 30.03 1017 10 16 0.00 0.00
1:59 pm 13:59 Mostly Sunny 53 11.7 29 -1.7 40 40 NNW 20 31 30.01 1016 10 16 0.00 0.00
2:59 pm 14:59 Mostly Sunny 53 11.7 27 -2.8 37 37 NNW 18 30 30.01 1016 10 16 0.00 0.00
3:59 pm 15:59 Mostly Sunny 53 11.7 28 -2.2 38 38 NNW 24 39 30.01 1016 10 16 0.00 0.00
4:59 pm 16:59 Mostly Sunny 51 10.6 28 -2.2 41 41 N 17 28 30.04 1017 10 16 0.00 0.00
5:59 pm 17:59 Mostly Sunny 50 10 29 -1.7 44 44 N 13 20 30.06 1018 10 16 0.00 0.00
6:59 pm 18:59 Clear 49 9.4 29 -1.7 46 46 N 15 24 30.08 1019 10 16 0.00 0.00
7:59 pm 19:59 Clear 47 8.3 29 -1.7 50 50 N 18 30 30.11 1020 10 16 0.00 0.00
8:59 pm 20:59 Mostly Clear 46 7.8 29 -1.7 51 51 N 15 24 30.12 1020 10 16 0.00 0.00
9:59 pm 21:59 Partly Cloudy 45 7.2 29 -1.7 54 54 N 23 37 30.13 1020 10 16 0.00 0.00
10:59 pm 22:59 Partly Cloudy 43 6.1 28 -2.2 56 56 N 20 31 30.14 1021 10 16 0.00 0.00
11:59 pm 23:59 Cloudy 43 6.1 28 -2.2 56 56 N 21 33 30.15 1021 10 16 0.00 0.00

Powered by AerisWeather